Weather History for Los Alamos, NM

Change the Weather History Date:

Monday, August 6, 2012

  Actual Average Record
Temperature  
Mean Temperature 66 °F -  
Max Temperature 77 °F 78 °F 91 °F (1977)
Min Temperature 55 °F 54 °F 46 °F (1971)
Cooling Degree Days 1    
Growing Degree Days 16 (Base 50)    
Moisture  
Dew Point 51 °F    
Average Humidity 57    
Maximum Humidity 94    
Minimum Humidity 34    
Precipitation  
Precipitation 0.21 in - - ()
Sea Level Pressure  
Sea Level Pressure 30.46 in    
Wind  
Wind Speed 10 mph (NNW)    
Max Wind Speed 24 mph    
Max Gust Speed 30 mph    
Visibility 10 miles    
Events Rain    
Averages and records for this station are not official NWS values.
T = Trace of Precipitation, MM = Missing Value Source: NWS Daily Summary

Daily Weather History Graph

Daily Weather History Graph

Search for Another Location

Airport:

Trip Planner

Search our weather history database for the weather conditions in past years. The results will help you decide how hot, cold, wet, or windy it might be!

Date:

Astronomy

Aug. 06, 2012 Rise Set
Actual Time 6:17 AM MDT 8:04 PM MDT
Civil Twilight 5:49 AM MDT 8:31 PM MDT
Nautical Twilight 5:15 AM MDT 9:05 PM MDT
Astronomical Twilight 4:39 AM MDT 9:40 PM MDT
Moon 10:27 PM MDT (8/6) 10:56 AM MDT (8/6)
Length of Visible Light 14h 42m
Length of Day
13h 47m
Waning Gibbous, 78% of the Moon is Illuminated
Aug 6
Waning Gibbous
Aug 9
Last Quarter
Aug 17
New
Aug 24
First Quarter
Aug 31
Full

Hourly Weather History & Observations

Time (MDT) Temp. Dew Point Humidity Pressure Visibility Wind Dir Wind Speed Gust Speed Precip Events Conditions
12:15 AM 62.6 °F 51.8 °F 68% 30.54 in 10.0 mi North 19.6 mph 26.5 mph N/A Rain Light Rain
12:35 AM 60.8 °F 51.8 °F 72% 30.54 in 10.0 mi North 11.5 mph 23.0 mph 0.01 in Rain Light Rain
12:55 AM 59.0 °F 53.6 °F 82% 30.55 in 10.0 mi North 17.3 mph 26.5 mph 0.01 in   Mostly Cloudy
1:15 AM 57.2 °F 53.6 °F 88% 30.54 in 10.0 mi North 24.2 mph 29.9 mph N/A   Overcast
1:35 AM 57.2 °F 51.8 °F 82% 30.54 in 10.0 mi NNW 18.4 mph 28.8 mph N/A   Overcast
1:55 AM 57.2 °F 51.8 °F 82% 30.54 in 10.0 mi North 12.7 mph 29.9 mph N/A   Overcast
2:15 AM 57.2 °F 51.8 °F 82% 30.54 in 10.0 mi North 15.0 mph 20.7 mph N/A   Overcast
2:35 AM 55.4 °F 51.8 °F 88% 30.58 in 4.0 mi North 10.4 mph - 0.13 in Rain Heavy Rain
2:55 AM 55.4 °F 51.8 °F 88% 30.56 in 10.0 mi NNE 12.7 mph - 0.19 in Rain Light Rain
4:15 AM 55.4 °F 51.8 °F 88% 30.53 in 10.0 mi North 5.8 mph - N/A Rain Light Rain
4:35 AM 55.4 °F 51.8 °F 88% 30.53 in 10.0 mi NNE 10.4 mph - 0.01 in Rain Light Rain
4:55 AM 55.4 °F 51.8 °F 88% 30.53 in 10.0 mi NE 4.6 mph - 0.01 in   Overcast
5:35 AM 55.4 °F 53.6 °F 94% 30.53 in 10.0 mi WNW 3.5 mph - N/A   Overcast
6:15 AM 55.4 °F 51.8 °F 88% 30.53 in 10.0 mi NW 3.5 mph - N/A   Light Drizzle
7:55 AM 59.0 °F 53.6 °F 82% 30.51 in 10.0 mi West 4.6 mph - N/A   Mostly Cloudy
8:35 AM 59.0 °F 53.6 °F 82% 30.51 in 10.0 mi NNW 3.5 mph - N/A   Clear
8:55 AM 60.8 °F 53.6 °F 77% 30.51 in 10.0 mi North 6.9 mph - N/A   Clear
9:15 AM 60.8 °F 53.6 °F 77% 30.51 in 10.0 mi North 8.1 mph - N/A   Clear
9:35 AM 62.6 °F 53.6 °F 72% 30.51 in 10.0 mi NNE 6.9 mph - N/A   Clear
9:55 AM 62.6 °F 55.4 °F 77% 30.51 in 10.0 mi NNE 6.9 mph - N/A   Clear
10:15 AM 64.4 °F 55.4 °F 73% 30.51 in 10.0 mi North 8.1 mph - N/A   Clear
10:35 AM 64.4 °F 53.6 °F 68% 30.51 in 10.0 mi North 4.6 mph - N/A   Clear
10:55 AM 68.0 °F 53.6 °F 60% 30.51 in 10.0 mi NNE 8.1 mph - N/A   Clear
11:15 AM 68.0 °F 51.8 °F 56% 30.51 in 10.0 mi ENE 5.8 mph - N/A   Clear
11:35 AM 69.8 °F 51.8 °F 53% 30.51 in 10.0 mi NE 6.9 mph - N/A   Clear
11:55 AM 69.8 °F 53.6 °F 56% 30.50 in 10.0 mi ENE 8.1 mph - N/A   Clear
12:15 PM 71.6 °F 53.6 °F 53% 30.49 in 10.0 mi Calm Calm - N/A   Scattered Clouds
12:35 PM 71.6 °F 51.8 °F 50% 30.49 in 10.0 mi East 6.9 mph - N/A   Scattered Clouds
12:55 PM 71.6 °F 51.8 °F 50% 30.48 in 10.0 mi ESE 3.5 mph - N/A   Mostly Cloudy
1:15 PM 73.4 °F 51.8 °F 47% 30.48 in 10.0 mi East 3.5 mph - N/A   Overcast
1:35 PM 73.4 °F 51.8 °F 47% 30.47 in 10.0 mi East 4.6 mph - N/A   Overcast
1:55 PM 73.4 °F 53.6 °F 50% 30.46 in 10.0 mi North 5.8 mph - N/A   Mostly Cloudy
2:15 PM 75.2 °F 53.6 °F 47% 30.45 in 10.0 mi West 6.9 mph - N/A   Scattered Clouds
2:35 PM 77.0 °F 51.8 °F 41% 30.44 in 10.0 mi NNW 4.6 mph - N/A   Scattered Clouds
2:55 PM 77.0 °F 51.8 °F 41% 30.43 in 7.0 mi NW 6.9 mph - N/A   Scattered Clouds
3:15 PM 77.0 °F 48.2 °F 36% 30.42 in 4.0 mi West 3.5 mph - N/A   Haze
3:35 PM 77.0 °F 48.2 °F 36% 30.42 in 10.0 mi Calm Calm - N/A   Scattered Clouds
3:55 PM 77.0 °F 48.2 °F 36% 30.41 in 10.0 mi Calm Calm - N/A   Scattered Clouds
4:15 PM 77.0 °F 46.4 °F 34% 30.40 in 10.0 mi WSW 4.6 mph - N/A   Scattered Clouds
4:35 PM 77.0 °F 50.0 °F 39% 30.40 in 10.0 mi Calm Calm - N/A   Mostly Cloudy
4:55 PM 77.0 °F 50.0 °F 39% 30.39 in 10.0 mi West 11.5 mph - N/A   Overcast
5:15 PM 77.0 °F 50.0 °F 39% 30.39 in 10.0 mi West 8.1 mph - N/A   Scattered Clouds
5:35 PM 77.0 °F 50.0 °F 39% 30.38 in 10.0 mi West 6.9 mph - N/A   Clear
5:55 PM 77.0 °F 51.8 °F 41% 30.38 in 10.0 mi SW 5.8 mph - N/A   Clear
6:15 PM 75.2 °F 50.0 °F 41% 30.38 in 10.0 mi West 9.2 mph - N/A   Scattered Clouds
6:35 PM 77.0 °F 50.0 °F 39% 30.38 in 10.0 mi West 9.2 mph - N/A   Scattered Clouds
6:55 PM 77.0 °F 50.0 °F 39% 30.38 in 10.0 mi West 9.2 mph - N/A   Clear
7:15 PM 75.2 °F 48.2 °F 38% 30.37 in 10.0 mi West 6.9 mph - N/A   Clear
7:35 PM 75.2 °F 50.0 °F 41% 30.37 in 10.0 mi West 6.9 mph - N/A   Clear
7:55 PM 75.2 °F 50.0 °F 41% 30.37 in 10.0 mi West 8.1 mph - N/A   Clear
8:15 PM 75.2 °F 48.2 °F 38% 30.37 in 10.0 mi West 9.2 mph - N/A   Clear
8:35 PM 75.2 °F 46.4 °F 36% 30.38 in 10.0 mi WNW 4.6 mph - N/A   Clear
8:55 PM 73.4 °F 46.4 °F 38% 30.38 in 10.0 mi West 5.8 mph - N/A   Clear
9:15 PM 73.4 °F 48.2 °F 41% 30.39 in 10.0 mi West 8.1 mph - N/A   Clear
9:35 PM 73.4 °F 46.4 °F 38% 30.39 in 10.0 mi WNW 4.6 mph - N/A   Clear
9:55 PM 73.4 °F 46.4 °F 38% 30.39 in 10.0 mi NW 4.6 mph - N/A   Scattered Clouds
10:55 PM 71.6 °F 46.4 °F 41% 30.39 in 10.0 mi North 5.8 mph - N/A   Clear
11:15 PM 71.6 °F 46.4 °F 41% 30.39 in 10.0 mi NW 6.9 mph - N/A   Clear
11:35 PM 71.6 °F 46.4 °F 41% 30.39 in 10.0 mi Calm Calm - N/A   Clear
11:55 PM 69.8 °F 46.4 °F 43% 30.38 in 10.0 mi NNW 5.8 mph - N/A   Clear